Terminal Aerodrome Forecast
Issued by NWS

Current Version | Previous Version | Text Only | Print | Product List | Glossary Off
Versions: 1 2 3 4 5 6 7 8 9 10 11 12 13 14 15 16 17 18 19 20 21 22 23 24 25 26 27 28 29 30 31 32 33 34 35 36 37 38 39

000
FTUS41 KRNK 201726
TAFLWB
TAF
KLWB 201726Z 2018/2118 03003KT P6SM OVC020
     FM210200 00000KT P6SM OVC010
     FM210500 00000KT 3SM BR OVC010
     FM211000 00000KT 1/4SM FG OVC001
     FM211400 23003KT P6SM BKN025=

USA.gov is the U.S. government's official web portal to all federal, state and local government web resources and services.